Regional Weather Roundup
Issued by NWS Kansas City/Pleasant Hill, MO

Home | Current Version | Previous Version | Text Only | Print | Product List | Glossary On
Versions: 1 2 3 4 5 6 7 8 9 10 11 12 13 14 15 16 17 18 19 20 21 22 23 24 25 26 27
000
ASUS43 KEAX 241010
RWREAX

WEATHER ROUNDUP FOR EASTERN KANSAS AND NORTHWEST MISSOURI
NATIONAL WEATHER SERVICE KANSAS CITY/PLEASANT HILL MO
500 AM CDT SAT SEP 24 2016

KSZ040-057-103>105-MOZ028-029-037-043-241100-
...KANSAS CITY METROPOLITAN AREA...

CITY           SKY/WX    TMP DP  RH WIND       PRES   REMARKS
K.C. INTL      MOCLDY    72  63  73 S10       30.01R
K.C. DOWNTOWN  PTCLDY    74  65  73 S6        30.00S
LEES SUMMIT    PTCLDY    72  65  78 S9        30.02S
OLATHE - IXD   CLEAR     70  65  84 S8        30.02R
OLATHE - OJC   CLEAR     68  64  87 SE6       30.02R
LAWRENCE       CLEAR     67  66  97 E7        29.99S

$$

MOZ001>008-011>017-020>025-030>033-038>040-044>046-053-054-241100-
...NORTHERN AND CENTRAL MISSOURI...

CITY           SKY/WX    TMP DP  RH WIND       PRES   REMARKS
ST. JOSEPH     PTCLDY    71  65  81 SE6       30.00R
MOSBY          MOSUNNY   68  64  88 CALM      30.02R
WHITEMAN AFB   CLEAR     68  68 100 S5        30.02S
CLINTON        CLEAR     66  66 100 CALM      30.04R FOG
SEDALIA        CLEAR     68  64  87 S5        30.05R
WARSAW         NOT AVBL
CHILLICOTHE      N/A     68  65  90 CALM      30.04S
KIRKSVILLE     CLEAR     67  63  87 SE5       30.07R

$$

MOZ041-047>049-056>058-063>065-088>090-097-241100-
...EASTERN AND SOUTHERN MISSOURI...

CITY           SKY/WX    TMP DP  RH WIND       PRES   REMARKS
ST. LOUIS INTL CLEAR     75  65  70 CALM      30.08R
SPIRIT OF STL  CLEAR     66  65  96 CALM      30.07R FOG
COLUMBIA       CLEAR     69  66  90 SE7       30.07R
JEFFERSON CITY CLEAR     65  64  97 CALM      30.05S FOG
ROLLA          CLEAR     66  64  93 SE6       30.08R
OSAGE BEACH    CLEAR     66  64  93 SE3       30.07R
SPRINGFIELD    CLEAR     71  64  78 S8        30.05S
BRANSON        PTCLDY    68  66  94 SE5       30.08S
JOPLIN         CLEAR     72  67  84 SE7       30.03R
WEST PLAINS    CLEAR     65  62  90 CALM      30.11R

$$

IAZ060-094-KSZ022-034>040-054-083-096-NEZ052-066-093-241100-
...KANSAS...SOUTHEAST NEBRASKA AND IOWA...

CITY           SKY/WX    TMP DP  RH WIND       PRES   REMARKS
TOPEKA         CLEAR     72  65  78 SE6       29.98R
MANHATTAN      MOCLDY    73  67  81 S6        29.94S
EMPORIA        MOCLDY    71  66  84 S13       29.98R
CHANUTE        CLEAR     70  67  90 SE7       30.00R
WICHITA        PTCLDY    74  69  85 S12       29.94R
OMAHA          PTCLDY    72  63  73 SE13      29.95S
LINCOLN        MOCLDY    73  64  73 S10       29.93S
FALLS CITY     CLEAR     69  65  86 SE7       29.97R
LAMONI         CLEAR     68  64  87 SE7       30.04R
DES MOINES     PTCLDY    70  68  93 SE6       30.03S FOG

$$





USA.gov is the U.S. government's official web portal to all federal, state and local government web resources and services.